Algona, IA

10:29 AM CDT on September 25, 2016 (GMT -0500)
Algona Municipal

Weather History for KAXA - September, 2012

Change the Weather History Date:

Saturday, September 1, 2012

  Actual Average Record
Temperature  
Mean Temperature 72 °F -  
Max Temperature 86 °F 78 °F 93 °F (2011)
Min Temperature 59 °F 57 °F 51 °F (1998)
Cooling Degree Days 8    
Growing Degree Days 22 (Base 50)    
Moisture  
Dew Point 57 °F    
Average Humidity 60    
Maximum Humidity 88    
Minimum Humidity 35    
Precipitation  
Precipitation 0.00 in - - ()
Sea Level Pressure  
Sea Level Pressure 30.03 in    
Wind  
Wind Speed 7 mph (ENE)    
Max Wind Speed 13 mph    
Max Gust Speed 16 mph    
Visibility 10 miles    
Events      
Averages and records for this station are not official NWS values.
T = Trace of Precipitation, MM = Missing Value Source: NWS Daily Summary

Daily Weather History Graph

Daily Weather History Graph

Search for Another Location

Airport or City:

Trip Planner

Search our weather history database for the weather conditions in past years. The results will help you decide how hot, cold, wet, or windy it might be!

Date:

Astronomy

Sep. 01, 2012 Rise Set
Actual Time 6:41 AM CDT 7:50 PM CDT
Civil Twilight 6:12 AM CDT 8:20 PM CDT
Nautical Twilight 5:37 AM CDT 8:55 PM CDT
Astronomical Twilight 5:00 AM CDT 9:31 PM CDT
Moon 8:03 PM CDT (9/1) 7:53 AM CDT (9/1)
Length of Visible Light 14h 07m
Length of Day
13h 09m
Full, 99% of the Moon is Illuminated
Sep 1
Full
Sep 8
Last Quarter
Sep 15
New
Sep 22
First Quarter
Sep 29
Full

Hourly Weather History & Observations

Time (CDT) Temp. Heat Index Dew Point Humidity Pressure Visibility Wind Dir Wind Speed Gust Speed Precip Events Conditions
12:15 AM 66.2 °F - 55.4 °F 68% 30.06 in 10.0 mi NE 5.8 mph - N/A   Partly Cloudy
12:35 AM 66.2 °F - 55.4 °F 68% 30.06 in 10.0 mi NNE 6.9 mph - N/A   Partly Cloudy
12:55 AM 64.4 °F - 55.4 °F 73% 30.06 in 10.0 mi NNE 6.9 mph - N/A   Partly Cloudy
1:15 AM 64.4 °F - 55.4 °F 73% 30.06 in 10.0 mi NNE 4.6 mph - N/A   Partly Cloudy
1:35 AM 62.6 °F - 55.4 °F 77% 30.05 in 10.0 mi NNE 5.8 mph - N/A   Partly Cloudy
1:55 AM 62.6 °F - 55.4 °F 77% 30.05 in 10.0 mi NNE 5.8 mph - N/A   Clear
2:15 AM 62.6 °F - 55.4 °F 77% 30.05 in 10.0 mi NNE 4.6 mph - N/A   Clear
2:35 AM 62.6 °F - 55.4 °F 77% 30.05 in 10.0 mi NNE 4.6 mph - N/A   Partly Cloudy
2:55 AM 62.6 °F - 55.4 °F 77% 30.05 in 10.0 mi NNE 4.6 mph - N/A   Partly Cloudy
3:15 AM 62.6 °F - 55.4 °F 77% 30.04 in 10.0 mi NNE 5.8 mph - N/A   Partly Cloudy
3:35 AM 60.8 °F - 55.4 °F 82% 30.04 in 10.0 mi NNE 5.8 mph - N/A   Partly Cloudy
3:55 AM 60.8 °F - 55.4 °F 82% 30.04 in 10.0 mi NNE 4.6 mph - N/A   Partly Cloudy
4:15 AM 60.8 °F - 55.4 °F 82% 30.04 in 10.0 mi NNE 5.8 mph - N/A   Partly Cloudy
4:35 AM 60.8 °F - 55.4 °F 82% 30.04 in 10.0 mi NNE 4.6 mph - N/A   Scattered Clouds
4:55 AM 60.8 °F - 55.4 °F 82% 30.04 in 10.0 mi NE 4.6 mph - N/A   Scattered Clouds
5:15 AM 60.8 °F - 55.4 °F 82% 30.04 in - NNE 5.8 mph - N/A   Partly Cloudy
5:35 AM 59.0 °F - 55.4 °F 88% 30.05 in 10.0 mi NNE 4.6 mph - N/A   Partly Cloudy
5:55 AM 60.8 °F - 55.4 °F 82% 30.05 in 10.0 mi North 3.5 mph - N/A   Partly Cloudy
6:15 AM 59.0 °F - 55.4 °F 88% 30.05 in 10.0 mi NNE 4.6 mph - N/A   Clear
6:35 AM 59.0 °F - 55.4 °F 88% 30.06 in 10.0 mi NE 4.6 mph - N/A   Partly Cloudy
6:55 AM 59.0 °F - 55.4 °F 88% 30.06 in 10.0 mi NNE 5.8 mph - N/A   Clear
7:15 AM 60.8 °F - 57.2 °F 88% 30.06 in 10.0 mi NNE 4.6 mph - N/A   Clear
7:35 AM 60.8 °F - 57.2 °F 88% 30.07 in 10.0 mi NNE 4.6 mph - N/A   Clear
8:15 AM 66.2 °F - 60.8 °F 83% 30.07 in 10.0 mi NE 3.5 mph - N/A   Clear
8:35 AM 68.0 °F - 60.8 °F 78% 30.07 in 10.0 mi ENE 5.8 mph - N/A   Clear
8:55 AM 71.6 °F - 60.8 °F 69% 30.07 in 10.0 mi East 8.1 mph - N/A   Clear
9:15 AM 73.4 °F - 59.0 °F 61% 30.06 in 10.0 mi East 9.2 mph - N/A   Clear
9:35 AM 75.2 °F - 59.0 °F 57% 30.06 in 10.0 mi ESE 8.1 mph - N/A   Clear
9:55 AM 75.2 °F - 59.0 °F 57% 30.07 in 10.0 mi East 10.4 mph - N/A   Clear
10:15 AM 77.0 °F - 59.0 °F 54% 30.08 in 10.0 mi East 8.1 mph - N/A   Clear
10:35 AM 78.8 °F - 57.2 °F 47% 30.07 in 10.0 mi East 10.4 mph - N/A   Clear
10:55 AM 80.6 °F 80.8 °F 57.2 °F 45% 30.07 in 10.0 mi East 10.4 mph - N/A   Clear
11:15 AM 80.6 °F 80.8 °F 57.2 °F 45% 30.07 in 10.0 mi ESE 8.1 mph - N/A   Clear
11:35 AM 82.4 °F 82.0 °F 57.2 °F 42% 30.07 in 10.0 mi East 11.5 mph - N/A   Clear
11:55 AM 82.4 °F 82.5 °F 59.0 °F 45% 30.07 in 10.0 mi East 11.5 mph - N/A   Clear
12:15 PM 82.4 °F 82.5 °F 59.0 °F 45% 30.06 in 10.0 mi East 9.2 mph - N/A   Clear
12:35 PM 84.2 °F 84.4 °F 60.8 °F 45% 30.06 in 10.0 mi East 10.4 mph - N/A   Clear
12:55 PM 84.2 °F 84.4 °F 60.8 °F 45% 30.05 in 10.0 mi East 9.2 mph - N/A   Clear
1:15 PM 84.2 °F 84.4 °F 60.8 °F 45% 30.05 in 9.0 mi East 8.1 mph 16.1 mph N/A   Clear
1:35 PM 86.0 °F 86.1 °F 60.8 °F 43% 30.04 in 7.0 mi East 10.4 mph - N/A   Scattered Clouds
1:55 PM 84.2 °F 84.4 °F 60.8 °F 45% 30.04 in 10.0 mi Variable 4.6 mph 15.0 mph N/A   Mostly Cloudy
2:15 PM 86.0 °F 86.6 °F 62.6 °F 45% 30.03 in 10.0 mi ENE 12.7 mph - N/A   Scattered Clouds
2:35 PM 84.2 °F 84.4 °F 60.8 °F 45% 30.03 in 9.0 mi East 10.4 mph - N/A   Partly Cloudy
2:55 PM 86.0 °F 86.1 °F 60.8 °F 43% 30.03 in 10.0 mi East 8.1 mph - N/A   Clear
3:15 PM 86.0 °F 86.1 °F 60.8 °F 43% 30.02 in 10.0 mi East 6.9 mph 13.8 mph N/A   Clear
3:35 PM 86.0 °F 85.4 °F 59.0 °F 40% 30.01 in 10.0 mi East 12.7 mph - N/A   Clear
3:55 PM 86.0 °F 85.4 °F 59.0 °F 40% 30.00 in 10.0 mi ENE 12.7 mph - N/A   Clear
4:15 PM 86.0 °F 85.4 °F 59.0 °F 40% 30.00 in 10.0 mi East 5.8 mph 11.5 mph N/A   Clear
4:35 PM 86.0 °F 84.9 °F 57.2 °F 37% 29.99 in 10.0 mi ENE 11.5 mph - N/A   Clear
4:55 PM 86.0 °F 84.9 °F 57.2 °F 37% 29.99 in 10.0 mi NE 8.1 mph 16.1 mph N/A   Clear
5:15 PM 86.0 °F 84.9 °F 57.2 °F 37% 29.99 in 10.0 mi ENE 9.2 mph - N/A   Clear
5:35 PM 86.0 °F 84.5 °F 55.4 °F 35% 29.99 in 10.0 mi East 9.2 mph - N/A   Clear
5:55 PM 86.0 °F 84.5 °F 55.4 °F 35% 29.99 in 10.0 mi East 8.1 mph - N/A   Clear
6:15 PM 86.0 °F 84.9 °F 57.2 °F 37% 29.99 in 10.0 mi East 10.4 mph - N/A   Clear
6:35 PM 84.2 °F 83.5 °F 57.2 °F 40% 29.98 in 10.0 mi ENE 8.1 mph 15.0 mph N/A   Clear
6:55 PM 82.4 °F 82.0 °F 57.2 °F 42% 29.99 in 10.0 mi East 8.1 mph - N/A   Clear
7:15 PM 80.6 °F 80.8 °F 57.2 °F 45% 29.99 in 10.0 mi ENE 6.9 mph - N/A   Clear
7:35 PM 78.8 °F - 59.0 °F 51% 29.99 in 10.0 mi East 6.9 mph - N/A   Clear
7:55 PM 77.0 °F - 59.0 °F 54% 29.99 in 10.0 mi East 5.8 mph - N/A   Clear
8:15 PM 75.2 °F - 59.0 °F 57% 30.00 in 10.0 mi East 4.6 mph - N/A   Clear
8:35 PM 75.2 °F - 59.0 °F 57% 30.00 in 10.0 mi East 5.8 mph - N/A   Clear
8:55 PM 73.4 °F - 59.0 °F 61% 30.00 in 10.0 mi East 5.8 mph - N/A   Clear
9:15 PM 73.4 °F - 57.2 °F 57% 30.01 in 10.0 mi East 6.9 mph - N/A   Clear
9:35 PM 73.4 °F - 57.2 °F 57% 30.01 in 10.0 mi ESE 8.1 mph - N/A   Clear
9:55 PM 73.4 °F - 57.2 °F 57% 30.01 in 10.0 mi ESE 10.4 mph - N/A   Clear
10:15 PM 71.6 °F - 55.4 °F 57% 30.01 in 10.0 mi ESE 10.4 mph - N/A   Clear
10:35 PM 71.6 °F - 55.4 °F 57% 30.02 in 10.0 mi ESE 9.2 mph - N/A   Clear
10:55 PM 71.6 °F - 55.4 °F 57% 30.01 in 10.0 mi ESE 6.9 mph - N/A   Clear
11:15 PM 69.8 °F - 55.4 °F 60% 30.02 in 10.0 mi SE 5.8 mph - N/A   Clear
11:35 PM 69.8 °F - 55.4 °F 60% 30.01 in 10.0 mi SE 6.9 mph - N/A   Clear
11:55 PM 69.8 °F - 55.4 °F 60% 30.01 in 10.0 mi SE 6.9 mph - N/A   Clear